"startDT [UTC]","vpos","CH4 [ppm]","stdev(CH4) [ppm]","CO2 [ppm]","stdev(CO2) [ppm]","H2O [ppm]","stdev(H2O)","p_LGR [torr]","T_LGR [C]","mt1_LGR [us]","mt2_LGR [us]","T_ECpre [C]","T_EC1 [C]","T_EC2 [C]","p_inlet [hPa]","p_in [hPa]","p_out [hPa]","T_inlet [C]","RH_inlet [%]","dwpt_inlet [C]","T_vent [C]","RH_vent [%]","dwpt_vent [C]","flow_vent [l min-1]","flow_inlet [l min-1]","dwpt_sample [C]","T_room [C]"
2012-08-02 00:00:00,0.0,1.9457,0.0010,389.77,0.33,164.5,28.6,138.02,33.02,24.65,36.40,0.95,-26.05,12.73,-49,575,-916,28.4,41.8,14.1,28.3,1.2,-30.7,5.73,2.35,-26.5,31.8
2012-08-02 00:01:00,0.0,1.9456,0.0012,389.94,0.31,154.6,31.9,138.02,33.02,24.65,36.40,0.95,-26.04,13.01,-49,575,-916,28.4,41.7,14.1,28.3,1.2,-30.6,5.73,2.33,-26.5,31.9
2012-08-02 00:02:00,0.0,1.9460,0.0011,390.47,0.46,157.4,32.6,138.02,33.02,24.65,36.40,0.95,-26.04,13.29,-49,575,-916,28.4,41.7,14.1,28.3,1.2,-30.6,5.73,2.32,-26.5,31.8
2012-08-02 00:03:00,0.0,1.9443,0.0011,390.10,0.39,149.8,32.7,138.02,33.02,24.65,36.40,0.95,-26.03,13.54,-49,575,-916,28.4,41.6,14.1,28.3,1.2,-30.6,5.73,2.35,-26.5,31.8
2012-08-02 00:04:00,0.0,1.9429,0.0010,390.06,0.28,159.8,31.8,138.02,33.03,24.65,36.40,0.95,-26.03,13.79,-49,575,-916,28.4,41.5,14.1,28.3,1.2,-30.6,5.73,2.31,-26.5,31.9
2012-08-02 00:05:00,0.0,1.9425,0.0011,389.90,0.33,162.6,33.8,138.02,33.03,24.65,36.41,0.95,-26.01,14.04,-49,575,-916,28.4,41.5,14.0,28.4,1.2,-30.6,5.73,2.35,-26.5,31.9
2012-08-02 00:06:00,0.0,1.9421,0.0011,389.77,0.28,159.3,26.0,138.02,33.03,24.65,36.40,0.94,-26.01,14.26,-49,575,-916,28.4,41.4,14.0,28.4,1.2,-30.6,5.73,2.33,-26.5,31.9
2012-08-02 00:07:00,0.0,1.9435,0.0009,389.93,0.31,159.1,36.0,138.02,33.03,24.64,36.41,0.95,-26.01,14.47,-49,575,-916,28.4,41.4,14.0,28.4,1.2,-30.6,5.73,2.33,-26.5,31.9
2012-08-02 00:08:00,0.0,1.9428,0.0009,389.76,0.33,159.5,31.8,138.02,33.04,24.65,36.40,0.93,-26.00,14.68,-49,575,-916,28.4,41.4,14.0,28.4,1.2,-30.6,5.73,2.35,-26.5,32.0
2012-08-02 00:09:00,0.0,1.9432,0.0011,389.69,0.27,155.9,29.1,138.02,33.04,24.65,36.40,0.92,-26.00,14.88,-49,575,-916,28.4,41.4,14.0,28.4,1.2,-30.6,5.73,2.31,-26.5,32.0
2012-08-02 00:10:00,0.0,1.9425,0.0011,389.52,0.31,165.7,33.6,138.02,33.04,24.65,36.41,0.95,-26.00,15.07,-49,575,-916,28.4,41.3,14.0,28.4,1.2,-30.6,5.73,2.35,-26.5,32.0
2012-08-02 00:11:00,0.0,1.9430,0.0009,389.62,0.31,161.3,32.3,138.02,33.04,24.65,36.40,0.93,-25.99,15.26,-49,575,-916,28.4,41.3,14.0,28.4,1.2,-30.6,5.73,2.32,-26.5,31.9
2012-08-02 00:12:00,0.0,1.9430,0.0012,389.89,0.35,153.7,30.1,138.02,33.04,24.65,36.40,0.94,-25.98,15.44,-49,576,-916,28.4,41.4,14.0,28.4,1.2,-30.6,5.73,2.33,-26.5,31.9
2012-08-02 00:13:00,0.0,1.9432,0.0013,390.32,0.35,165.5,33.8,138.02,33.05,24.65,36.40,0.96,-25.98,15.60,-49,575,-916,28.4,41.5,14.1,28.4,1.2,-30.6,5.73,2.35,-26.5,31.9
2012-08-02 00:14:00,0.0,1.9461,0.0011,390.39,0.31,165.7,33.4,138.02,33.05,24.64,36.40,0.94,-25.97,15.77,-49,575,-916,28.4,41.5,14.1,28.4,1.2,-30.6,5.73,2.31,-26.5,31.9
2012-08-02 00:15:00,0.0,1.9457,0.0012,390.47,0.30,163.8,34.6,138.02,33.05,24.65,36.40,0.94,-25.96,15.93,-49,575,-916,28.4,41.4,14.0,28.4,1.2,-30.6,5.73,2.36,-26.5,31.9
2012-08-02 00:16:00,0.0,1.9464,0.0013,390.55,0.33,157.4,31.6,138.02,33.05,24.65,36.41,0.95,-25.96,16.07,-49,575,-916,28.4,41.4,14.1,28.4,1.2,-30.6,5.73,2.32,-26.5,32.0
2012-08-02 00:17:00,0.0,1.9465,0.0011,390.68,0.36,163.2,27.2,138.02,33.05,24.65,36.41,0.94,-25.95,16.21,-49,575,-916,28.4,41.4,14.0,28.4,1.2,-30.7,5.73,2.33,-26.5,31.9
2012-08-02 00:18:00,0.0,1.9465,0.0012,390.85,0.35,166.5,32.3,138.02,33.06,24.65,36.40,0.96,-25.95,16.35,-49,576,-916,28.5,41.4,14.1,28.4,1.2,-30.7,5.73,2.34,-26.5,31.9
2012-08-02 00:19:00,0.0,1.9475,0.0011,391.18,0.31,157.0,29.1,138.02,33.06,24.65,36.40,0.95,-25.94,16.48,-49,575,-916,28.5,41.5,14.1,28.4,1.2,-30.6,5.73,2.32,-26.5,31.9
2012-08-02 00:20:00,0.0,1.9463,0.0012,390.75,0.32,162.9,28.8,138.02,33.06,24.65,36.41,0.94,-25.93,16.60,-49,575,-916,28.4,41.4,14.0,28.4,1.2,-30.6,5.73,2.35,-26.5,31.9
2012-08-02 00:21:00,0.0,1.9473,0.0015,391.11,0.39,163.7,30.5,138.02,33.07,24.65,36.40,0.95,-25.93,16.72,-49,576,-916,28.5,41.4,14.1,28.4,1.2,-30.6,5.73,2.32,-26.5,31.9
2012-08-02 00:22:00,0.0,1.9440,0.0011,390.36,0.38,175.0,30.5,138.02,33.07,24.65,36.40,0.97,-25.92,16.83,-49,575,-916,28.5,41.4,14.0,28.4,1.2,-30.6,5.73,2.34,-26.5,31.9
2012-08-02 00:23:00,0.0,1.9450,0.0010,390.67,0.42,168.9,32.5,138.02,33.07,24.65,36.41,0.96,-25.92,16.94,-49,576,-916,28.5,41.5,14.1,28.4,1.2,-30.6,5.73,2.34,-26.5,31.9
2012-08-02 00:24:00,0.0,1.9457,0.0012,390.99,0.50,167.9,33.6,138.02,33.08,24.64,36.41,0.95,-25.92,17.04,-49,575,-916,28.5,41.5,14.1,28.4,1.2,-30.6,5.73,2.32,-26.5,32.0
2012-08-02 00:25:00,0.0,1.9448,0.0011,390.67,0.31,163.2,35.0,138.02,33.08,24.65,36.41,0.95,-25.91,17.14,-49,576,-916,28.5,41.4,14.1,28.4,1.2,-30.6,5.73,2.35,-26.5,32.0
2012-08-02 00:26:00,0.0,1.9453,0.0012,390.93,0.39,161.6,35.6,138.02,33.09,24.65,36.40,0.94,-25.91,17.24,-49,576,-916,28.5,41.5,14.1,28.4,1.2,-30.6,5.73,2.31,-26.5,32.0
2012-08-02 00:27:00,0.0,1.9445,0.0009,390.76,0.35,166.6,32.2,138.02,33.09,24.65,36.40,0.96,-25.91,17.33,-49,576,-916,28.5,41.5,14.1,28.4,1.2,-30.6,5.73,2.35,-26.5,32.0
2012-08-02 00:28:00,0.0,1.9451,0.0011,390.76,0.30,167.7,29.2,138.02,33.09,24.65,36.40,0.95,-25.91,17.42,-49,575,-916,28.5,41.4,14.1,28.4,1.2,-30.7,5.73,2.33,-26.5,32.0
2012-08-02 00:29:00,0.0,1.9464,0.0012,390.76,0.33,162.2,31.6,138.02,33.09,24.64,36.41,0.95,-25.90,17.50,-49,576,-916,28.5,41.5,14.1,28.4,1.2,-30.8,5.73,2.32,-26.5,32.0
2012-08-02 00:30:00,0.0,1.9465,0.0011,390.91,0.31,158.9,27.1,138.02,33.09,24.65,36.40,0.95,-25.91,17.58,-49,576,-916,28.5,41.5,14.1,28.4,1.2,-30.8,5.73,2.35,-26.5,32.0
2012-08-02 00:31:00,0.0,1.9466,0.0011,390.87,0.30,166.7,31.2,138.02,33.09,24.65,36.41,0.96,-25.91,17.65,-49,576,-916,28.5,41.5,14.1,28.4,1.2,-30.8,5.73,2.31,-26.5,31.9
2012-08-02 00:32:00,0.0,1.9470,0.0010,391.07,0.26,158.0,31.7,138.02,33.09,24.65,36.40,0.95,-25.91,17.73,-49,576,-916,28.5,41.5,14.1,28.4,1.2,-30.8,5.73,2.35,-26.5,31.9
2012-08-02 00:33:00,0.0,1.9473,0.0012,391.34,0.35,164.1,35.9,138.02,33.09,24.65,36.40,0.95,-25.90,17.79,-49,575,-916,28.5,41.6,14.1,28.4,1.2,-30.8,5.73,2.33,-26.5,31.9
2012-08-02 00:34:00,0.0,1.9468,0.0010,391.24,0.32,170.5,31.1,138.02,33.09,24.65,36.41,0.96,-25.90,17.86,-49,575,-916,28.5,41.6,14.1,28.4,1.2,-30.9,5.73,2.33,-26.5,31.9
2012-08-02 00:35:00,0.0,1.9474,0.0011,391.16,0.27,159.1,25.7,138.02,33.10,24.65,36.41,0.96,-25.90,17.92,-49,576,-916,28.5,41.6,14.1,28.4,1.2,-30.8,5.73,2.35,-26.5,31.9
2012-08-02 00:36:00,0.0,1.9488,0.0011,391.32,0.33,166.2,31.0,138.02,33.10,24.64,36.41,0.95,-25.90,17.99,-49,575,-916,28.5,41.7,14.2,28.4,1.2,-30.8,5.73,2.31,-26.5,31.9
2012-08-02 00:37:00,0.0,1.9494,0.0012,391.65,0.32,167.5,32.2,138.02,33.11,24.65,36.41,0.95,-25.90,18.04,-49,576,-916,28.5,41.8,14.2,28.4,1.2,-30.8,5.73,2.35,-26.5,31.9
2012-08-02 00:38:00,0.0,1.9504,0.0011,391.59,0.33,157.6,28.2,138.02,33.11,24.64,36.41,0.95,-25.90,18.10,-49,575,-916,28.5,41.9,14.2,28.4,1.2,-30.8,5.73,2.32,-26.5,31.9
2012-08-02 00:39:00,0.0,1.9500,0.0008,391.64,0.27,170.5,34.2,138.02,33.11,24.64,36.41,0.96,-25.89,18.16,-49,576,-916,28.5,41.9,14.2,28.4,1.2,-30.8,5.73,2.34,-26.5,31.9
2012-08-02 00:40:00,0.0,1.9508,0.0012,392.12,0.34,160.1,27.8,138.02,33.11,24.64,36.40,0.96,-25.89,18.21,-49,575,-916,28.5,42.0,14.3,28.4,1.2,-30.8,5.73,2.34,-26.5,31.9
2012-08-02 00:41:00,0.0,1.9502,0.0010,391.85,0.32,155.6,28.6,138.02,33.12,24.65,36.40,0.96,-25.89,18.26,-49,576,-916,28.5,42.0,14.3,28.4,1.2,-30.8,5.73,2.32,-26.5,31.9
2012-08-02 00:42:00,0.0,1.9513,0.0011,391.84,0.38,163.1,28.5,138.02,33.12,24.65,36.40,0.96,-25.88,18.31,-49,576,-916,28.5,42.1,14.3,28.4,1.2,-30.9,5.73,2.36,-26.5,31.9
2012-08-02 00:43:00,0.0,1.9516,0.0010,391.58,0.34,168.4,31.7,138.02,33.12,24.65,36.40,0.96,-25.88,18.36,-49,576,-916,28.5,42.1,14.3,28.4,1.2,-30.8,5.73,2.31,-26.5,32.0
2012-08-02 00:44:00,0.0,1.9523,0.0009,391.43,0.31,165.7,32.8,138.02,33.13,24.65,36.40,0.96,-25.88,18.40,-49,576,-916,28.5,42.1,14.3,28.4,1.2,-30.8,5.73,2.35,-26.5,32.0
2012-08-02 00:45:00,0.0,1.9531,0.0012,391.90,0.38,171.5,31.6,138.02,33.13,24.65,36.40,0.96,-25.88,18.45,-49,576,-916,28.5,42.1,14.4,28.4,1.2,-30.8,5.73,2.33,-26.5,32.0
2012-08-02 00:46:00,0.0,1.9531,0.0011,391.88,0.29,169.0,28.1,138.02,33.13,24.65,36.40,0.96,-25.87,18.49,-49,576,-916,28.5,42.1,14.4,28.4,1.2,-30.8,5.73,2.32,-26.5,32.0
2012-08-02 00:47:00,0.0,1.9534,0.0011,391.78,0.34,163.8,27.2,138.02,33.14,24.64,36.40,0.95,-25.87,18.53,-49,576,-916,28.5,42.1,14.4,28.4,1.2,-30.8,5.73,2.35,-26.5,32.0
2012-08-02 00:48:00,0.0,1.9537,0.0015,392.36,0.61,159.1,27.5,138.02,33.14,24.65,36.41,0.95,-25.86,18.56,-49,576,-916,28.5,42.1,14.4,28.4,1.2,-30.8,5.73,2.31,-26.5,32.0
2012-08-02 00:49:00,0.0,1.9547,0.0010,392.58,0.46,163.6,33.4,138.02,33.14,24.65,36.41,0.96,-25.86,18.60,-49,576,-916,28.5,42.1,14.4,28.4,1.2,-30.8,5.73,2.35,-26.5,31.9
2012-08-02 00:50:00,0.0,1.9560,0.0011,393.17,0.41,175.8,36.4,138.02,33.14,24.65,36.41,0.95,-25.86,18.64,-49,576,-916,28.5,42.1,14.4,28.4,1.2,-30.8,5.73,2.32,-26.5,31.9
2012-08-02 00:51:00,0.0,1.9582,0.0014,393.65,0.44,168.6,30.8,138.02,33.14,24.64,36.41,0.96,-25.86,18.67,-49,576,-916,28.5,41.9,14.3,28.5,1.2,-30.8,5.73,2.33,-26.5,32.0
2012-08-02 00:52:00,0.0,1.9598,0.0014,394.06,0.33,165.0,38.2,138.02,33.14,24.65,36.41,0.96,-25.86,18.70,-49,576,-916,28.5,41.6,14.2,28.5,1.2,-30.7,5.73,2.35,-26.5,32.0
2012-08-02 00:53:00,0.0,1.9643,0.0013,394.32,0.33,162.7,32.1,138.02,33.15,24.65,36.40,0.95,-25.86,18.72,-49,576,-916,28.5,41.2,14.1,28.5,1.2,-30.8,5.73,2.31,-26.5,32.0
2012-08-02 00:54:00,0.0,1.9670,0.0014,394.51,0.34,158.7,32.0,138.02,33.15,24.65,36.41,0.96,-25.86,18.75,-49,576,-916,28.5,41.1,14.0,28.5,1.2,-30.8,5.73,2.35,-26.5,32.0
2012-08-02 00:55:00,0.0,1.9701,0.0012,394.98,0.31,172.2,29.2,138.02,33.15,24.65,36.40,0.95,-25.86,18.78,-49,576,-916,28.5,41.0,14.0,28.4,1.2,-30.8,5.73,2.32,-26.5,32.1
2012-08-02 00:56:00,0.0,1.9733,0.0017,394.92,0.46,163.5,30.5,138.02,33.16,24.65,36.41,0.96,-25.85,18.80,-49,576,-916,28.5,40.4,13.7,28.4,1.2,-30.8,5.73,2.34,-26.5,32.1
2012-08-02 00:57:00,0.0,1.9765,0.0012,394.35,0.31,166.1,30.1,138.02,33.16,24.65,36.41,0.95,-25.85,18.83,-49,576,-916,28.5,39.6,13.5,28.5,1.2,-30.8,5.73,2.33,-26.5,32.0
2012-08-02 00:58:00,0.0,1.9777,0.0012,394.35,0.38,166.8,35.3,138.02,33.16,24.65,36.40,0.95,-25.85,18.86,-49,576,-916,28.5,39.4,13.3,28.5,1.2,-30.8,5.73,2.32,-26.5,32.0
2012-08-02 00:59:00,0.0,1.9782,0.0013,393.93,0.34,162.8,34.8,138.02,33.16,24.65,36.41,0.97,-25.84,18.89,-49,576,-916,28.5,39.1,13.3,28.5,1.2,-30.8,5.73,2.35,-26.5,32.0
2012-08-02 01:00:00,0.0,1.9803,0.0014,393.90,0.31,161.8,30.6,138.02,33.16,24.65,36.40,0.96,-25.84,18.91,-49,576,-916,28.5,39.0,13.2,28.5,1.2,-30.8,5.73,2.31,-26.5,32.1
2012-08-02 01:01:00,0.0,1.9824,0.0011,393.78,0.33,162.4,35.1,138.02,33.17,24.65,36.40,0.95,-25.84,18.93,-49,576,-916,28.6,38.9,13.2,28.5,1.2,-30.8,5.73,2.35,-26.5,32.0
2012-08-02 01:02:00,0.0,1.9838,0.0021,393.72,0.36,172.0,35.2,138.02,33.17,24.65,36.40,0.95,-25.84,18.95,-49,576,-917,28.5,38.7,13.1,28.5,1.2,-30.8,5.73,2.32,-26.5,32.0
2012-08-02 01:03:00,0.0,1.9889,0.0040,393.74,0.31,176.6,30.9,138.02,33.17,24.65,36.41,0.96,-25.84,18.97,-49,576,-916,28.5,38.5,13.0,28.5,1.2,-30.8,5.73,2.32,-26.5,32.1
2012-08-02 01:04:00,0.0,1.9986,0.0012,393.71,0.30,158.2,30.3,138.02,33.18,24.65,36.41,0.95,-25.84,18.98,-49,576,-916,28.5,38.1,12.8,28.5,1.2,-30.8,5.73,2.35,-26.5,32.1
2012-08-02 01:05:00,0.0,2.0017,0.0014,393.78,0.32,160.7,37.8,138.02,33.18,24.65,36.40,0.96,-25.83,19.00,-49,576,-916,28.6,37.8,12.8,28.5,1.2,-30.8,5.73,2.31,-26.5,32.1
2012-08-02 01:06:00,0.0,2.0039,0.0014,393.94,0.28,161.1,29.1,138.02,33.18,24.65,36.41,0.96,-25.84,19.02,-49,576,-917,28.6,37.8,12.8,28.5,1.2,-30.8,5.73,2.35,-26.5,32.1
2012-08-02 01:07:00,0.0,2.0006,0.0025,394.03,0.31,167.0,32.7,138.02,33.18,24.64,36.40,0.96,-25.84,19.04,-49,576,-917,28.6,37.9,12.8,28.5,1.2,-30.8,5.73,2.32,-26.5,32.0
2012-08-02 01:08:00,0.0,1.9983,0.0016,393.99,0.28,166.8,32.8,138.02,33.19,24.65,36.41,0.95,-25.84,19.06,-49,576,-917,28.5,37.9,12.8,28.5,1.2,-30.7,5.73,2.33,-26.5,32.0
2012-08-02 01:09:00,0.0,2.0100,0.0031,394.33,0.36,160.7,29.8,138.02,33.19,24.65,36.39,0.95,-25.84,19.07,-49,576,-917,28.6,37.7,12.7,28.5,1.2,-30.8,5.73,2.34,-26.5,31.9
2012-08-02 01:10:00,0.0,2.0151,0.0025,394.32,0.24,166.8,29.9,138.02,33.19,24.64,36.40,0.95,-25.83,19.09,-49,576,-917,28.6,37.5,12.6,28.5,1.2,-30.8,5.73,2.31,-26.5,31.9
2012-08-02 01:11:00,0.0,2.0192,0.0013,394.38,0.26,161.9,34.3,138.02,33.20,24.65,36.40,0.97,-25.83,19.05,-49,576,-917,28.5,37.3,12.5,28.5,1.2,-30.8,5.73,2.35,-26.5,32.0
2012-08-02 01:12:00,0.0,2.0205,0.0011,394.48,0.33,169.2,31.8,138.02,33.20,24.65,36.40,1.12,-25.83,17.85,-49,576,-916,28.6,37.2,12.5,28.5,1.2,-30.8,5.73,2.31,-26.5,32.0
2012-08-02 01:13:00,0.0,2.0220,0.0010,394.15,0.32,161.4,29.1,138.02,33.20,24.64,36.40,1.20,-25.83,15.64,-49,576,-917,28.6,37.0,12.4,28.5,1.2,-30.8,5.73,2.34,-26.5,32.0
2012-08-02 01:14:00,0.0,2.0223,0.0015,394.23,0.29,161.7,28.8,138.02,33.21,24.65,36.40,1.01,-25.86,13.26,-49,576,-917,28.6,37.0,12.4,28.5,1.2,-30.8,5.73,2.33,-26.5,32.0
2012-08-02 01:15:00,0.0,2.0221,0.0013,394.06,0.27,166.6,38.5,138.02,33.21,24.65,36.40,1.01,-25.93,10.88,-49,576,-917,28.6,36.8,12.4,28.5,1.2,-30.8,5.73,2.31,-26.5,32.0
2012-08-02 01:16:00,0.0,2.0223,0.0011,393.74,0.33,166.1,35.9,138.01,33.21,24.65,36.41,1.09,-25.96,8.59,-49,576,-917,28.6,36.6,12.3,28.5,1.2,-30.8,5.73,2.34,-26.5,32.0
2012-08-02 01:17:00,0.0,2.0241,0.0012,393.75,0.23,167.0,35.3,138.01,33.22,24.64,36.40,0.99,-25.98,6.40,-49,576,-917,28.6,36.4,12.2,28.5,1.2,-30.9,5.73,2.30,-26.5,32.0
2012-08-02 01:18:00,0.0,2.0242,0.0010,393.51,0.37,169.0,29.0,138.01,33.22,24.65,36.40,1.07,-25.98,4.31,-49,576,-917,28.6,36.3,12.1,28.5,1.2,-31.0,5.73,2.34,-26.5,32.0
2012-08-02 01:19:00,0.0,2.0241,0.0010,393.21,0.26,157.5,30.0,138.02,33.22,24.64,36.41,1.12,-25.98,2.33,-49,576,-917,28.6,36.1,12.1,28.5,1.2,-31.0,5.73,2.31,-26.5,32.0
2012-08-02 01:20:00,0.0,2.0236,0.0011,393.32,0.32,164.4,37.2,138.01,33.23,24.65,36.41,1.00,-25.99,0.46,-49,576,-916,28.6,36.1,12.1,28.5,1.2,-31.0,5.73,2.32,-26.5,32.0
2012-08-02 01:21:00,0.0,2.0247,0.0013,393.42,0.34,165.7,26.4,138.02,33.23,24.65,36.40,1.06,-25.98,-1.31,-49,576,-917,28.6,36.0,12.0,28.5,1.2,-31.0,5.73,2.34,-26.6,32.0
2012-08-02 01:22:00,0.0,2.0271,0.0014,393.44,0.29,162.9,35.3,138.02,33.23,24.64,36.41,1.11,-25.98,-2.93,-49,576,-917,28.6,35.9,12.0,28.5,1.2,-31.0,5.73,2.30,-26.5,32.0
2012-08-02 01:23:00,0.0,2.0278,0.0010,393.22,0.33,164.4,32.1,138.01,33.23,24.65,36.40,1.01,-25.99,-4.09,-49,576,-916,28.6,35.8,12.0,28.5,1.2,-31.0,5.73,2.34,-26.5,32.0
2012-08-02 01:24:00,0.0,2.0261,0.0010,392.72,0.33,161.5,33.1,138.02,33.23,24.65,36.40,1.04,-25.99,-5.43,-49,576,-916,28.6,35.7,11.9,28.5,1.2,-31.0,5.73,2.30,-26.5,32.0
2012-08-02 01:25:00,0.0,2.0253,0.0014,392.37,0.31,166.6,29.0,138.01,33.24,24.65,36.40,1.12,-26.00,-6.61,-49,576,-916,28.6,35.5,11.8,28.5,1.2,-31.0,5.73,2.32,-26.5,32.0
2012-08-02 01:26:00,0.0,2.0243,0.0012,392.25,0.31,165.7,29.6,138.01,33.24,24.65,36.40,1.01,-26.00,-7.91,-49,576,-917,28.6,35.4,11.8,28.5,1.2,-31.1,5.73,2.32,-26.5,32.0
2012-08-02 01:27:00,0.0,2.0235,0.0014,392.15,0.37,162.2,35.4,138.02,33.25,24.65,36.41,1.01,-26.00,-9.21,-49,576,-917,28.6,35.3,11.7,28.5,1.2,-31.0,5.73,2.29,-26.5,32.1
2012-08-02 01:28:00,0.0,2.0240,0.0009,392.22,0.29,176.8,36.3,138.01,33.25,24.65,36.40,1.10,-26.00,-10.23,-49,576,-916,28.6,35.2,11.7,28.5,1.2,-31.0,5.73,2.33,-26.5,32.1
2012-08-02 01:29:00,0.0,2.0250,0.0013,392.39,0.38,168.6,28.6,138.01,33.25,24.65,36.41,1.06,-26.01,-11.22,-49,576,-917,28.6,35.2,11.7,28.5,1.2,-31.0,5.73,2.29,-26.5,32.0
2012-08-02 01:30:00,0.0,2.0262,0.0012,392.51,0.30,168.8,28.0,138.01,33.25,24.65,36.40,0.98,-26.01,-12.27,-49,576,-917,28.6,35.2,11.7,28.5,1.2,-31.0,5.73,2.31,-26.5,32.0
2012-08-02 01:31:00,0.0,2.0260,0.0011,392.56,0.30,176.8,32.8,138.01,33.26,24.64,36.40,1.05,-26.02,-13.21,-49,576,-917,28.6,35.2,11.7,28.5,1.2,-31.1,5.73,2.32,-26.5,32.0
2012-08-02 01:32:00,0.0,2.0247,0.0011,392.47,0.29,160.0,35.1,138.01,33.26,24.65,36.41,1.09,-26.02,-14.09,-49,576,-917,28.6,35.1,11.7,28.6,1.2,-31.0,5.73,2.29,-26.5,32.0
2012-08-02 01:33:00,0.0,2.0254,0.0010,392.57,0.35,162.6,29.9,138.02,33.26,24.64,36.40,1.03,-26.02,-14.89,-49,576,-917,28.6,35.0,11.6,28.6,1.2,-31.0,5.73,2.33,-26.5,32.0
2012-08-02 01:34:00,0.0,2.0252,0.0012,392.63,0.30,165.5,33.0,138.01,33.27,24.65,36.40,0.99,-26.03,-15.72,-49,576,-917,28.6,35.0,11.6,28.6,1.2,-31.0,5.73,2.29,-26.5,32.0
2012-08-02 01:35:00,0.0,2.0257,0.0010,392.87,0.39,165.0,28.6,138.01,33.27,24.64,36.40,1.05,-26.04,-16.55,-49,576,-917,28.6,35.0,11.6,28.5,1.2,-31.0,5.73,2.31,-26.6,32.0
2012-08-02 01:36:00,0.0,2.0250,0.0012,392.97,0.33,170.8,33.1,138.01,33.27,24.65,36.40,1.09,-26.04,-17.33,-49,576,-917,28.6,35.0,11.6,28.6,1.2,-31.0,5.73,2.32,-26.5,32.0
2012-08-02 01:37:00,0.0,2.0261,0.0012,393.09,0.31,167.6,30.3,138.01,33.27,24.65,36.40,1.03,-26.05,-18.06,-49,576,-916,28.6,35.0,11.6,28.6,1.2,-31.0,5.73,2.29,-26.5,32.0
2012-08-02 01:38:00,0.0,2.0275,0.0011,393.04,0.43,166.3,30.9,138.01,33.28,24.65,36.40,0.99,-26.06,-18.75,-49,576,-916,28.6,34.9,11.6,28.6,1.2,-30.9,5.73,2.33,-26.6,32.1
2012-08-02 01:39:00,0.0,2.0284,0.0010,393.20,0.27,162.5,31.0,138.01,33.28,24.64,36.40,1.03,-26.07,-19.38,-49,576,-917,28.6,34.9,11.6,28.5,1.2,-31.0,5.73,2.30,-26.6,32.0
2012-08-02 01:40:00,0.0,2.0289,0.0012,392.86,0.36,170.6,33.6,138.01,33.28,24.64,36.41,1.09,-26.07,-19.98,-49,576,-917,28.6,34.9,11.6,28.6,1.2,-31.0,5.73,2.31,-26.6,32.0
2012-08-02 01:41:00,0.0,2.0290,0.0010,392.77,0.27,159.3,30.1,138.01,33.28,24.65,36.41,1.04,-26.08,-20.54,-49,576,-916,28.6,34.8,11.5,28.6,1.2,-31.0,5.73,2.31,-26.6,32.0
2012-08-02 01:42:00,0.0,2.0306,0.0010,392.74,0.26,163.1,31.0,138.01,33.29,24.65,36.41,0.98,-26.08,-21.08,-49,576,-917,28.6,34.7,11.5,28.6,1.2,-31.0,5.73,2.29,-26.6,32.0
2012-08-02 01:43:00,0.0,2.0301,0.0014,392.72,0.32,171.4,34.4,138.01,33.29,24.64,36.40,1.00,-26.09,-21.57,-49,576,-917,28.6,34.7,11.5,28.6,1.2,-30.9,5.73,2.33,-26.6,32.0
2012-08-02 01:44:00,0.0,2.0238,0.0021,392.93,0.36,169.7,27.7,138.01,33.29,24.65,36.41,1.06,-26.10,-22.02,-49,576,-917,28.6,34.9,11.6,28.6,1.2,-31.0,5.73,2.29,-26.6,32.0
2012-08-02 01:45:00,0.0,2.0232,0.0013,392.24,0.48,173.9,35.6,138.01,33.29,24.65,36.41,1.08,-26.10,-22.45,-49,576,-917,28.6,34.8,11.5,28.6,1.2,-31.0,5.73,2.31,-26.6,32.1
2012-08-02 01:46:00,0.0,2.0234,0.0012,391.50,0.45,172.9,28.7,138.01,33.30,24.65,36.41,1.02,-26.11,-22.86,-49,576,-916,28.6,34.4,11.4,28.6,1.2,-31.0,5.73,2.31,-26.6,32.1
2012-08-02 01:47:00,0.0,2.0232,0.0010,390.60,0.32,170.5,31.7,138.01,33.30,24.65,36.40,0.98,-26.12,-23.25,-49,576,-917,28.6,34.0,11.2,28.6,1.2,-31.0,5.73,2.29,-26.6,32.1
2012-08-02 01:48:00,0.0,2.0222,0.0012,390.06,0.35,164.4,29.5,138.01,33.31,24.65,36.41,1.02,-26.13,-23.61,-49,576,-916,28.6,33.7,11.1,28.6,1.2,-31.1,5.73,2.32,-26.6,32.1
2012-08-02 01:49:00,0.0,2.0223,0.0012,389.78,0.33,165.5,31.8,138.01,33.31,24.65,36.41,1.06,-26.14,-23.95,-49,576,-916,28.7,33.5,11.0,28.6,1.2,-31.0,5.73,2.29,-26.6,32.1
2012-08-02 01:50:00,0.0,2.0220,0.0011,389.64,0.34,174.5,33.6,138.01,33.31,24.65,36.40,1.06,-26.14,-24.27,-49,576,-917,28.7,33.4,11.0,28.6,1.2,-31.0,5.73,2.31,-26.5,32.1
2012-08-02 01:51:00,0.0,2.0224,0.0011,389.67,0.28,174.6,36.1,138.01,33.32,24.64,36.40,1.01,-26.15,-24.58,-49,576,-917,28.7,33.3,10.9,28.6,1.2,-31.0,5.73,2.31,-26.6,32.1
2012-08-02 01:52:00,0.0,2.0218,0.0010,389.17,0.30,173.6,29.6,138.01,33.32,24.65,36.40,0.98,-26.16,-24.87,-49,576,-917,28.7,33.1,10.8,28.6,1.2,-31.0,5.73,2.29,-26.6,32.1
2012-08-02 01:53:00,0.0,2.0224,0.0010,389.25,0.29,172.6,29.2,138.01,33.32,24.65,36.40,1.04,-26.17,-25.14,-49,576,-917,28.7,33.0,10.8,28.6,1.2,-31.0,5.73,2.33,-26.6,32.1
2012-08-02 01:54:00,0.0,2.0221,0.0011,389.20,0.26,170.7,35.9,138.01,33.33,24.65,36.41,1.08,-26.17,-25.40,-49,576,-917,28.7,33.1,10.8,28.6,1.2,-31.1,5.73,2.29,-26.6,32.1
2012-08-02 01:55:00,0.0,2.0225,0.0011,389.38,0.30,173.7,29.8,138.01,33.33,24.65,36.41,1.03,-26.19,-25.65,-49,576,-917,28.7,33.1,10.8,28.6,1.2,-31.1,5.73,2.32,-26.6,32.1
2012-08-02 01:56:00,0.0,2.0237,0.0011,389.32,0.38,182.5,30.5,138.01,33.33,24.65,36.40,0.98,-26.19,-25.88,-49,576,-917,28.7,33.0,10.8,28.6,1.2,-31.2,5.73,2.31,-26.6,32.1
2012-08-02 01:57:00,0.0,2.0244,0.0011,389.30,0.28,187.1,30.8,138.01,33.34,24.65,36.40,1.00,-26.20,-26.08,-49,576,-917,28.7,32.9,10.7,28.6,1.1,-31.2,5.73,2.29,-26.6,32.1
2012-08-02 01:58:00,0.0,2.0253,0.0011,389.30,0.28,177.2,29.8,138.01,33.34,24.64,36.41,0.96,-26.21,-26.17,-49,576,-917,28.7,32.8,10.7,28.6,1.2,-31.2,5.73,2.32,-26.6,32.1
2012-08-02 01:59:00,0.0,2.0256,0.0010,389.48,0.26,165.1,32.5,138.01,33.34,24.65,36.40,1.05,-26.22,-25.94,-49,576,-917,28.7,32.9,10.7,28.6,1.1,-31.2,5.73,2.29,-26.6,32.1
2012-08-02 02:00:00,1.0,1.9416,0.0589,380.69,6.04,167.3,32.4,138.01,33.34,24.65,36.41,1.07,-26.22,-26.05,-49,584,-917,28.7,32.9,10.7,28.6,1.1,-31.2,5.73,2.32,-26.6,32.1
2012-08-02 02:01:00,1.0,1.8737,0.0011,373.57,0.31,163.6,27.4,138.01,33.35,24.65,36.43,1.02,-26.23,-26.21,-49,582,-917,28.7,32.9,10.8,28.6,1.1,-31.2,5.73,2.31,-26.6,32.1
2012-08-02 02:02:00,1.0,1.8739,0.0010,373.68,0.28,175.2,33.8,138.01,33.35,24.65,36.41,0.99,-26.24,-26.03,-49,582,-917,28.7,32.9,10.7,28.6,1.2,-31.2,5.73,2.29,-26.6,32.1
2012-08-02 02:03:00,1.0,1.8736,0.0009,373.76,0.26,168.3,33.1,138.01,33.36,24.65,36.41,0.98,-26.25,-26.00,-49,582,-917,28.7,32.8,10.7,28.6,1.1,-31.2,5.73,2.33,-26.6,32.1
2012-08-02 02:04:00,1.0,1.8731,0.0010,373.59,0.32,165.2,30.9,138.01,33.36,24.65,36.41,1.00,-26.25,-26.15,-49,582,-917,28.7,32.8,10.7,28.6,1.2,-31.2,5.73,2.30,-26.6,32.1
2012-08-02 02:05:00,0.0,1.9574,0.0593,382.40,6.28,170.4,31.2,138.01,33.36,24.65,36.41,0.95,-26.26,-26.20,-49,567,-917,28.7,32.8,10.8,28.6,1.1,-31.2,5.73,2.33,-26.6,32.1
2012-08-02 02:06:00,0.0,2.0257,0.0010,389.53,0.28,173.4,37.3,138.01,33.36,24.65,36.41,1.05,-26.26,-25.98,-49,568,-917,28.7,32.8,10.7,28.6,1.1,-31.2,5.73,2.33,-26.6,32.1
2012-08-02 02:07:00,0.0,2.0258,0.0012,389.67,0.33,171.6,30.2,138.01,33.37,24.65,36.41,1.08,-26.27,-26.09,-49,568,-917,28.7,32.8,10.7,28.6,1.1,-31.2,5.73,2.30,-26.7,32.1
2012-08-02 02:08:00,0.0,2.0213,0.0030,389.20,0.44,166.5,32.5,138.01,33.37,24.65,36.41,1.03,-26.27,-26.26,-49,568,-917,28.7,32.6,10.7,28.6,1.1,-31.2,5.73,2.33,-26.7,32.1
2012-08-02 02:09:00,0.0,2.0098,0.0030,387.82,0.34,167.6,28.0,138.01,33.37,24.65,36.41,0.97,-26.28,-26.06,-49,568,-917,28.7,32.2,10.5,28.7,1.1,-31.2,5.73,2.32,-26.7,32.1
2012-08-02 02:10:00,0.0,2.0033,0.0020,387.15,0.31,168.1,34.4,138.01,33.37,24.65,36.41,0.94,-26.24,-26.04,-49,568,-917,28.7,31.8,10.3,28.6,1.2,-31.1,5.73,2.31,-26.7,32.2
2012-08-02 02:11:00,0.0,2.0003,0.0011,386.92,0.29,170.1,33.9,138.01,33.38,24.65,36.41,0.96,-25.19,-26.19,-49,568,-917,28.7,31.5,10.2,28.7,1.1,-31.2,5.73,2.33,-26.8,32.1
2012-08-02 02:12:00,0.0,1.9977,0.0013,386.66,0.30,164.0,33.6,138.01,33.38,24.65,36.41,0.94,-23.34,-26.32,-49,569,-917,28.7,31.4,10.1,28.7,1.3,-30.1,5.73,2.30,-26.8,32.1
2012-08-02 02:13:00,0.0,1.9974,0.0011,386.51,0.29,159.7,31.0,138.01,33.38,24.65,36.41,0.89,-21.40,-26.40,-49,569,-917,28.7,31.3,10.1,28.7,1.4,-29.2,5.73,2.33,-26.8,32.2
2012-08-02 02:14:00,0.0,1.9970,0.0012,386.71,0.30,161.0,28.5,138.01,33.38,24.64,36.42,0.88,-19.50,-26.45,-49,569,-917,28.8,31.3,10.1,28.7,1.4,-28.7,5.73,2.31,-26.9,32.1
2012-08-02 02:15:00,0.0,1.9958,0.0013,386.56,0.31,159.1,32.1,138.01,33.39,24.65,36.41,0.88,-17.69,-26.47,-49,569,-917,28.7,31.3,10.1,28.7,1.5,-28.5,5.73,2.31,-26.9,32.1
2012-08-02 02:16:00,0.0,1.9909,0.0021,386.15,0.40,163.0,26.3,138.01,33.39,24.65,36.42,0.88,-15.96,-26.49,-49,569,-917,28.8,31.2,10.0,28.7,1.5,-28.7,5.73,2.33,-26.9,32.1
2012-08-02 02:17:00,0.0,1.9837,0.0015,385.45,0.33,163.3,30.3,138.01,33.40,24.65,36.41,0.92,-14.32,-26.49,-49,569,-917,28.7,30.8,9.8,28.6,1.4,-28.9,5.73,2.30,-26.9,32.1
2012-08-02 02:18:00,0.0,1.9816,0.0011,385.11,0.29,159.1,30.6,138.01,33.40,24.65,36.41,0.93,-12.77,-26.49,-49,569,-917,28.7,30.6,9.7,28.7,1.4,-29.0,5.73,2.33,-26.9,32.1
2012-08-02 02:19:00,0.0,1.9803,0.0013,385.03,0.28,168.5,31.5,138.01,33.40,24.65,36.41,0.93,-11.30,-26.49,-49,569,-917,28.7,30.6,9.7,28.7,1.4,-29.1,5.73,2.32,-27.0,32.1